Location: Caltech
(34.1382°N, 118.1253°W)
Time: 11:32:42
(UTC-07:00)

Iridium 21 - Visible Passes

Search period start: 19 August 2017 00:00
Search period end: 29 August 2017 00:00
Orbit: 776 x 779 km, 86.4° (Epoch: 19 August)

Date Brightness Start Highest point End Pass type
(mag) Time Alt. Az. Time Alt. Az. Time Alt. Az.
19 Aug 7.1 03:09:51 10° NNE 03:14:24 30° E 03:15:06 29° E visible
19 Aug 6.6 04:50:45 10° NNW 04:54:55 25° W 04:55:32 24° W visible
20 Aug 7.9 02:37:34 10° NE 02:40:38 16° ENE 02:41:06 15° E visible
20 Aug 5.8 04:16:35 10° NNW 04:21:31 48° W 04:21:31 48° W visible
21 Aug 5.6 03:42:54 10° N 03:47:33 71° N 03:47:33 71° N visible
22 Aug 6.7 03:09:36 10° NNE 03:13:37 40° NE 03:13:37 40° NE visible
22 Aug 7.2 04:51:37 10° NW 04:54:02 16° WNW 04:54:02 16° WNW visible
23 Aug 7.7 02:36:48 10° NNE 02:39:42 21° ENE 02:39:42 21° ENE visible
23 Aug 6.7 04:17:01 10° NNW 04:20:08 27° NW 04:20:08 27° NW visible
24 Aug 8.4 02:05:13 10° NE 02:05:50 11° ENE 02:05:50 11° ENE visible
24 Aug 6.5 03:43:04 10° N 03:46:15 37° NNW 03:46:15 37° NNW visible
25 Aug 7.0 03:09:32 10° N 03:12:24 33° NNE 03:12:24 33° NNE visible
26 Aug 7.7 02:36:24 10° NNE 02:38:34 22° NE 02:38:34 22° NE visible
26 Aug 7.5 04:17:40 10° NW 04:19:01 15° NW 04:19:01 15° NW visible
27 Aug 8.3 02:03:54 10° NE 02:04:45 13° NE 02:04:45 13° NE visible
27 Aug 7.3 03:43:23 10° NNW 03:45:12 21° NNW 03:45:12 21° NNW visible
28 Aug 7.5 03:09:37 10° N 03:11:24 22° N 03:11:24 22° N visible
